Location: Pedimozza
(42.0500°N, 9.3500°E)
Time: 20:33:37
(UTC+00:00)

ATLAS 3B R/B - Pass Details

Date: 19 August 2019
Orbit: 1028 x 1166 km, 63.8° (Epoch: 07 October)

Event Time Altitude Azimuth Distance (km) Brightness Sun altitude
Rises 19:06:58 0° 318° (NW) 3,796 7.1 -9.3°
Reaches altitude 10° 19:09:46 10° 310° (NW) 2,850 6.4 -9.7°
Maximum altitude 19:15:45 36° 246° (WSW) 1,623 4.1 -10.7°
Drops below altitude 10° 19:21:51 10° 183° (S) 2,907 4.7 -11.7°
Sets 19:24:45 0° 175° (S) 3,881 5.3 -12.2°
